Location: Bastelaar
(51.0950°N, 3.8602°E)
Time: 18:09:47
(UTC+00:00)

SJ-7 - Pass Details

Date: 18 November 2025
Orbit: 500 x 523 km, 97.7° (Epoch: 10 December)

Event Time Altitude Azimuth Distance (km) Brightness Sun altitude
Rises 17:30:51 0° 149° (SSE) 2,586 7.6 -15.1°
Reaches altitude 10° 17:32:58 10° 143° (SE) 1,706 6.6 -15.5°
Maximum altitude 17:36:28 44° 70° (ENE) 701 4.4 -16.0°
Drops below altitude 10° 17:40:00 10° 357° (N) 1,722 6.8 -16.5°
Sets 17:42:09 0° 352° (N) 2,613 7.8 -16.9°
